Location: Casteau
(50.5142°N, 4.0161°E)
Time: 22:38:08
(UTC+00:00)

Transit 2A - Pass Details

Date: 29 July 2021
Orbit: 594 x 964 km, 66.7° (Epoch: 26 September)

Event Time Altitude Azimuth Distance (km) Brightness Sun altitude
Rises 10:24:30 0° 297° (WNW) 2,967 8.7 53.8°
Reaches altitude 10° 10:28:04 10° 326° (NW) 2,128 8.1 54.2°
Maximum altitude 10:30:15 13° 353° (N) 1,985 8.0 54.4°
Drops below altitude 10° 10:32:32 10° 20° (NNE) 2,232 8.3 54.6°
Sets 10:36:28 0° 48° (NE) 3,254 9.2 54.9°
